Change the Weather History Date:

Tuesday, February 4, 2014

  Actual Average (KTOL) Record (KTOL)
Temperature  
Mean Temperature 14 °F 26 °F  
Max Temperature 21 °F 34 °F 67 °F (1890)
Min Temperature 6 °F 19 °F -9 °F (1918)
Degree Days  
Heating Degree Days 52 39  
Month to date heating degree days 156  
Since 1 July heating degree days 3705  
Cooling Degree Days 0 0  
Month to date cooling degree days 0  
Year to date cooling degree days 0  
Moisture  
Dew Point 11 °F    
Average Humidity 82    
Maximum Humidity 93    
Minimum Humidity 68    
Precipitation  
Precipitation 0.00 in 0.07 in 0.94 in (1971)
Month to date precipitation 0.27  
Year to date precipitation 2.32  
Snow  
Snow 0.00 in 0.40 in - ()
Month to date snowfall 1.5  
Since 1 July snowfall 22.6  
Snow Depth -    
Sea Level Pressure  
Sea Level Pressure 30.31 in    
Wind  
Wind Speed 4 mph (NE)    
Max Wind Speed 18 mph    
Max Gust Speed 26 mph    
Visibility 6 miles    
Events Snow    
T = Trace of Precipitation, MM = Missing Value Source: NWS Daily Summary

Daily Weather History Graph

Daily Weather History Graph

Search for Another Location

Airport or City:

Trip Planner

Search our weather history database for the weather conditions in past years. The results will help you decide how hot, cold, wet, or windy it might be!

Date:

Astronomy

Feb. 04, 2014 Rise Set
Actual Time 7:45 AM EST 5:56 PM EST
Civil Twilight 7:16 AM EST 6:25 PM EST
Nautical Twilight 6:43 AM EST 6:58 PM EST
Astronomical Twilight 6:10 AM EST 7:30 PM EST
Moon 10:17 AM EST (2/4) 11:54 PM EST (2/4)
Length of Visible Light 11h 09m
Length of Day
10h 10m
Waxing Crescent, 29% of the Moon is Illuminated
Feb 4
Waxing Crescent
Feb 6
First Quarter
Feb 14
Full
Feb 22
Last Quarter
Mar 1
New

Hourly Weather History & Observations

Time (EST) Temp. Windchill Dew Point Humidity Pressure Visibility Wind Dir Wind Speed Gust Speed Precip Events Conditions
12:15 AM 10.4 °F - 6.8 °F 85% 30.38 in 8.0 mi Calm Calm - N/A   Clear
12:35 AM 10.4 °F - 6.8 °F 85% 30.37 in 8.0 mi Calm Calm - N/A   Clear
12:55 AM 10.4 °F - 8.6 °F 92% 30.36 in 7.0 mi Calm Calm - N/A   Clear
1:15 AM 10.4 °F - 6.8 °F 85% 30.36 in 6.0 mi Calm Calm - N/A   Clear
1:35 AM 10.4 °F - 6.8 °F 85% 30.36 in 6.0 mi Calm Calm - N/A   Clear
1:55 AM 8.6 °F - 6.8 °F 92% 30.37 in 6.0 mi Calm Calm - N/A   Clear
2:15 AM 8.6 °F - 5.0 °F 85% 30.37 in 4.0 mi Calm Calm - N/A   Clear
2:35 AM 8.6 °F - 5.0 °F 85% 30.37 in 6.0 mi Calm Calm - N/A   Clear
2:55 AM 8.6 °F - 5.0 °F 85% 30.37 in 6.0 mi Calm Calm - N/A   Clear
3:15 AM 6.8 °F - 5.0 °F 92% 30.38 in 6.0 mi Calm Calm - N/A   Clear
3:35 AM 8.6 °F - 5.0 °F 85% 30.37 in 5.0 mi Calm Calm - N/A   Clear
3:55 AM 8.6 °F - 5.0 °F 85% 30.37 in 6.0 mi Calm Calm - N/A   Clear
4:15 AM 8.6 °F - 5.0 °F 85% 30.37 in 5.0 mi Calm Calm - N/A   Clear
4:35 AM 8.6 °F - 6.8 °F 92% 30.38 in 6.0 mi Calm Calm - N/A   Clear
4:55 AM 8.6 °F - 5.0 °F 85% 30.40 in 6.0 mi Calm Calm - N/A   Clear
5:15 AM 8.6 °F 0.1 °F 6.8 °F 92% 30.41 in 6.0 mi NW 4.6 mph - N/A   Clear
5:35 AM 8.6 °F - 5.0 °F 85% 30.42 in 6.0 mi Calm Calm - N/A   Clear
5:55 AM 8.6 °F - 5.0 °F 85% 30.42 in 6.0 mi Calm Calm - N/A   Clear
6:15 AM 8.6 °F - 5.0 °F 85% 30.41 in 6.0 mi Calm Calm - N/A   Clear
6:35 AM 8.6 °F - 5.0 °F 85% 30.40 in 6.0 mi Calm Calm - N/A   Clear
6:55 AM 8.6 °F - 5.0 °F 85% 30.39 in 5.0 mi Calm Calm - N/A   Clear
7:15 AM 10.4 °F - 6.8 °F 85% 30.39 in 7.0 mi Calm Calm - N/A   Clear
7:35 AM 10.4 °F - 6.8 °F 85% 30.39 in 7.0 mi Calm Calm - N/A   Clear
7:55 AM 10.4 °F 2.2 °F 6.8 °F 85% 30.39 in 6.0 mi NNE 4.6 mph - N/A   Clear
8:15 AM 12.2 °F - 8.6 °F 85% 30.40 in 6.0 mi Calm Calm - N/A   Clear
8:35 AM 12.2 °F - 8.6 °F 85% 30.42 in 6.0 mi Calm Calm - N/A   Clear
8:55 AM 12.2 °F - 8.6 °F 85% 30.43 in 7.0 mi Calm Calm - N/A   Clear
9:15 AM 12.2 °F - 8.6 °F 85% 30.43 in 6.0 mi Calm Calm - N/A   Clear
9:35 AM 14.0 °F 5.1 °F 10.4 °F 86% 30.42 in 7.0 mi East 5.8 mph - N/A   Clear
9:55 AM 14.0 °F 6.5 °F 10.4 °F 86% 30.42 in 7.0 mi ENE 4.6 mph - N/A   Clear
10:15 AM 15.8 °F 6.1 °F 10.4 °F 79% 30.40 in 7.0 mi ENE 6.9 mph - N/A   Clear
10:35 AM 15.8 °F 6.1 °F 10.4 °F 79% 30.40 in 6.0 mi ENE 6.9 mph - N/A   Haze
10:55 AM 15.8 °F 6.1 °F 10.4 °F 79% 30.40 in 8.0 mi ENE 6.9 mph - N/A   Clear
11:15 AM 17.6 °F 9.3 °F 10.4 °F 73% 30.40 in 8.0 mi ENE 5.8 mph - N/A   Clear
11:35 AM 17.6 °F 9.3 °F 10.4 °F 73% 30.39 in 9.0 mi NE 5.8 mph - N/A   Clear
11:55 AM 19.4 °F 10.4 °F 12.2 °F 74% 30.37 in 10.0 mi ENE 6.9 mph - N/A   Clear
12:15 PM 19.4 °F 10.4 °F 12.2 °F 74% 30.34 in 9.0 mi East 6.9 mph - N/A   Clear
12:35 PM 19.4 °F 12.8 °F 12.2 °F 74% 30.34 in 8.0 mi ENE 4.6 mph - N/A   Clear
12:55 PM 19.4 °F 11.5 °F 14.0 °F 80% 30.32 in 7.0 mi NE 5.8 mph - N/A   Clear
1:15 PM 19.4 °F 9.5 °F 14.0 °F 80% 30.32 in 8.0 mi ENE 8.1 mph - N/A   Clear
1:35 PM 21.2 °F 12.6 °F 14.0 °F 74% 30.31 in 9.0 mi NE 6.9 mph - N/A   Clear
1:55 PM 21.2 °F 10.9 °F 14.0 °F 74% 30.31 in 9.0 mi NNE 9.2 mph - N/A   Clear
2:15 PM 21.2 °F 12.6 °F 14.0 °F 74% 30.30 in 8.0 mi NNE 6.9 mph - N/A   Clear
2:35 PM 21.2 °F 11.7 °F 14.0 °F 74% 30.30 in 9.0 mi NE 8.1 mph - N/A   Clear
2:55 PM 21.2 °F 12.6 °F 14.0 °F 74% 30.30 in 9.0 mi NE 6.9 mph - N/A   Clear
3:15 PM 21.2 °F 10.9 °F 14.0 °F 74% 30.30 in 10.0 mi NE 9.2 mph - N/A   Clear
3:35 PM 21.2 °F 12.6 °F 14.0 °F 74% 30.30 in 10.0 mi NE 6.9 mph - N/A   Clear
3:55 PM 21.2 °F 12.6 °F 14.0 °F 74% 30.31 in 10.0 mi NE 6.9 mph - N/A   Clear
4:15 PM 21.2 °F 11.7 °F 14.0 °F 74% 30.31 in 10.0 mi NE 8.1 mph - N/A   Partly Cloudy
4:35 PM 21.2 °F 10.1 °F 14.0 °F 74% 30.29 in 10.0 mi NE 10.4 mph - N/A   Mostly Cloudy
4:55 PM 21.2 °F 10.1 °F 14.0 °F 74% 30.28 in 10.0 mi NE 10.4 mph - N/A   Mostly Cloudy
5:15 PM 21.2 °F 10.9 °F 14.0 °F 74% 30.27 in 10.0 mi NE 9.2 mph - N/A   Overcast
5:35 PM 21.2 °F 9.5 °F 14.0 °F 74% 30.26 in 10.0 mi ENE 11.5 mph - N/A   Overcast
5:55 PM 21.2 °F - 12.2 °F 68% 30.27 in 10.0 mi North - - N/A   Overcast
6:15 PM 21.2 °F 10.1 °F 12.2 °F 68% 30.27 in 10.0 mi ENE 10.4 mph - N/A   Overcast
6:35 PM 21.2 °F 12.6 °F 12.2 °F 68% 30.29 in 10.0 mi ENE 6.9 mph - N/A   Overcast
6:55 PM 21.2 °F 11.7 °F 12.2 °F 68% 30.29 in 10.0 mi ENE 8.1 mph - N/A   Overcast
7:15 PM 21.2 °F 10.1 °F 14.0 °F 74% 30.26 in 10.0 mi East 10.4 mph - N/A   Overcast
7:35 PM 21.2 °F 8.9 °F 15.8 °F 80% 30.23 in 1.5 mi ENE 12.7 mph - N/A Snow Light Snow
7:55 PM 19.4 °F 5.0 °F 17.6 °F 93% 30.20 in 0.8 mi ENE 16.1 mph - N/A Snow Light Snow
8:15 PM 21.2 °F 8.3 °F 17.6 °F 86% 30.20 in 0.8 mi NE 13.8 mph - N/A Snow Light Snow
8:35 PM 19.4 °F 5.5 °F 17.6 °F 93% 30.19 in 1.0 mi NE 15.0 mph - N/A Snow Light Snow
8:55 PM 21.2 °F 6.4 °F 17.6 °F 86% 30.17 in 1.0 mi NE 18.4 mph 24.2 mph N/A Snow Light Snow
9:15 PM 21.2 °F 7.8 °F 17.6 °F 86% 30.15 in 1.8 mi NE 15.0 mph - N/A Snow Light Snow
9:35 PM 21.2 °F 6.4 °F 17.6 °F 86% 30.13 in 2.0 mi NE 18.4 mph 26.5 mph N/A Snow Light Snow
9:55 PM 21.2 °F 6.8 °F 17.6 °F 86% 30.13 in 1.0 mi ENE 17.3 mph - N/A Snow Light Snow
10:15 PM 21.2 °F 6.4 °F 17.6 °F 86% 30.15 in 1.5 mi NE 18.4 mph - N/A Snow Light Snow
10:35 PM 19.4 °F 4.5 °F 17.6 °F 93% 30.13 in 2.0 mi ENE 17.3 mph - N/A Snow Light Snow
10:55 PM 19.4 °F 5.0 °F 17.6 °F 93% 30.10 in 2.5 mi ENE 16.1 mph - N/A Snow Light Snow
11:15 PM 19.4 °F 5.0 °F 17.6 °F 93% 30.09 in 2.5 mi ENE 16.1 mph - N/A Snow Light Snow
11:35 PM 19.4 °F 5.0 °F 17.6 °F 93% 30.07 in 2.0 mi NE 16.1 mph - N/A Snow Light Snow
11:55 PM 19.4 °F 4.5 °F 17.6 °F 93% 30.07 in 2.0 mi ENE 17.3 mph 24.2 mph N/A Snow Light Snow